Retour au catalogue

AMOS 5

ActifCommunicationsGEO
NORAD 37950·PAYLOAD·🇮🇱 Israel

Lancé Dec 11, 2011 depuis Baikonur Cosmodrome

Loading…

TLE

FraisSource: Space-Track

Époque: Sep 14, 2026, 14:00 UTC

1 37950U 11074A   26257.58402772  .00000128  00000-0  00000-0 0  9995
2 37950   9.0293  59.7384 0002406  85.7355 103.4071  1.00186904 53890

Suivez AMOS 5 en temps réel avec AllMySat

Download on the App Store